FW3102 Weather Reports


Display with metric or nautical units.
time (UTC)temp
F
wind
direction
speed
MPH
gust
MPH
rain 1hr
in
rain 24hr
in
rain mn
in
humidity
%
barometer
mb
20260902083046 60 116 0.0 2.0 0.00 0.00 0.00 71 999.6
20260902081549 60 131 0.0 1.0 0.00 0.00 0.00 70 1000.0
20260902080041 61 176 0.0 1.0 0.00 0.00 0.00 70 999.9
20260902074540 61 160 0.0 2.0 0.00 0.00 0.00 69 999.9
20260902073034 62 327 0.0 2.0 0.00 0.00 0.00 68 999.9
20260902071532 62 127 0.0 2.0 0.00 0.00 0.00 67 1000.1
20260902070028 63 64 0.0 3.0 0.00 0.00 0.00 65 1000.1
20260902064525 64 146 1.0 4.0 0.00 0.00 0.00 64 1000.2
20260902063024 64 41 0.0 3.0 0.00 0.00 0.00 63 1000.3
20260902061527 65 66 0.0 4.0 0.00 0.00 0.00 63 1000.2
20260902060020 65 150 1.0 4.0 0.00 0.00 0.00 62 1000.3
20260902054518 65 61 0.0 1.0 0.00 0.00 0.00 62 1000.5
20260902053029 65 62 0.0 1.0 0.00 0.00 0.00 62 1000.6
20260902051515 65 63 0.0 4.0 0.00 0.00 0.00 63 1000.8
20260902050015 65 68 0.0 0.0 0.00 0.00 0.00 62 1000.9
20260902044514 66 65 0.0 1.0 0.00 0.00 0.00 62 1000.9
20260902043014 66 217 0.0 1.0 0.00 0.00 0.00 61 1000.9
20260902041513 67 327 0.0 2.0 0.00 0.00 0.00 61 1000.9
20260902040013 67 61 0.0 0.0 0.00 0.00 0.00 61 1001.0
20260902034512 67 62 0.0 1.0 0.00 0.00 0.00 62 1001.1
20260902033015 68 111 0.0 1.0 0.00 0.00 0.00 63 1001.0
20260902031511 69 116 0.0 0.0 0.00 0.00 0.00 62 1001.0
20260902030010 70 116 0.0 1.0 0.00 0.00 0.00 61 1001.1
20260902024511 70 117 0.0 1.0 0.00 0.00 0.00 59 1001.1
20260902023009 71 63 0.0 0.0 0.00 0.00 0.00 57 1000.9
20260902021512 72 65 0.0 0.0 0.00 0.00 0.00 55 1001.0
20260902020008 73 62 0.0 0.0 0.00 0.00 0.00 53 1000.9
20260902014520 74 63 0.0 0.0 0.00 0.00 0.00 52 1000.9
20260902013007 75 66 0.0 1.0 0.00 0.00 0.00 50 1000.9
20260902011506 76 142 0.0 3.0 0.00 0.00 0.00 48 1001.0
20260902010007 77 136 0.0 2.0 0.00 0.00 0.00 46 1001.1
20260902004506 77 316 0.0 4.0 0.00 0.00 0.00 46 1001.2
20260902003003 78 141 0.0 7.0 0.00 0.00 0.00 44 1001.3
20260902001502 78 23 0.0 3.0 0.00 0.00 0.00 43 1001.3
20260901234615 79 147 0.0 6.0 0.00 0.00 0.00 43 1001.3
20260901233103 79 137 0.0 3.0 0.00 0.00 0.00 41 1001.5
20260901231558 80 129 0.0 4.0 0.00 0.00 0.00 42 1001.6
20260901230135 80 127 1.0 4.0 0.00 0.00 0.00 42 1001.6
20260901224552 80 135 1.0 5.0 0.00 0.00 0.00 42 1001.7
20260901223107 80 193 1.0 5.0 0.00 0.00 0.00 40 1001.8
20260901221547 80 65 0.0 2.0 0.00 0.00 0.00 43 1002.0
20260901220056 80 26 0.0 3.0 0.00 0.00 0.00 41 1002.2
20260901214542 80 83 0.0 3.0 0.00 0.00 0.00 43 1002.3
20260901213045 80 66 0.0 2.0 0.00 0.00 0.00 44 1002.4
20260901211548 79 139 0.0 3.0 0.00 0.00 0.00 45 1002.5
20260901210034 79 136 1.0 5.0 0.00 0.00 0.00 46 1002.6
20260901204542 80 18 0.0 2.0 0.00 0.00 0.00 44 1003.0
20260901203029 79 132 0.0 2.0 0.00 0.00 0.00 47 1002.9
20260901201526 78 63 0.0 4.0 0.00 0.00 0.00 49 1003.2
20260901200037 78 63 0.0 4.0 0.00 0.00 0.00 52 1003.2
20260901194523 77 139 0.0 4.0 0.00 0.00 0.00 49 1003.2
20260901193021 77 132 0.0 3.0 0.00 0.00 0.00 50 1003.4
20260901191525 77 54 1.0 3.0 0.00 0.00 0.00 50 1003.5
20260901190023 77 75 0.0 2.0 0.00 0.00 0.00 53 1003.7
20260901184518 75 138 0.0 3.0 0.00 0.00 0.00 51 1003.7
20260901183031 75 252 0.0 4.0 0.00 0.00 0.00 52 1003.9
20260901181507 73 62 0.0 2.0 0.00 0.00 0.00 54 1004.1
20260901180003 73 133 1.0 5.0 0.00 0.00 0.00 52 1004.3
20260901174602 72 25 0.0 4.0 0.00 0.00 0.00 55 1004.4
20260901173108 70 143 0.0 3.0 0.00 0.00 0.00 57 1004.5
20260901171552 69 139 0.0 1.0 0.00 0.00 0.00 58 1004.6
20260901170050 68 109 0.0 3.0 0.00 0.00 0.00 56 1004.9
20260901164602 68 156 0.0 1.0 0.00 0.00 0.00 58 1004.9
20260901163045 68 114 0.0 2.0 0.00 0.00 0.00 57 1005.1
20260901161541 68 143 0.0 4.0 0.00 0.00 0.00 57 1005.0
20260901160042 66 130 0.0 2.0 0.00 0.00 0.00 59 1005.1
20260901154535 64 143 0.0 2.0 0.00 0.00 0.00 63 1005.3
20260901153037 62 121 0.0 2.0 0.00 0.00 0.00 66 1005.4
20260901151524 59 143 0.0 1.0 0.00 0.00 0.00 71 1005.5
20260901150020 57 154 1.0 3.0 0.00 0.00 0.00 73 1005.4
20260901144527 55 146 0.0 2.0 0.00 0.00 0.00 76 1005.4
20260901143017 55 141 0.0 4.0 0.00 0.00 0.00 76 1005.5
20260901141516 54 127 0.0 5.0 0.00 0.00 0.00 78 1005.7
20260901140015 53 259 0.0 2.0 0.00 0.00 0.00 78 1005.6
20260901134514 53 139 0.0 3.0 0.00 0.00 0.00 79 1005.4
20260901133021 52 124 0.0 2.0 0.00 0.00 0.00 80 1005.2
20260901131514 51 132 0.0 1.0 0.00 0.00 0.00 82 1005.2
20260901130011 50 136 0.0 1.0 0.00 0.00 0.00 82 1005.2
20260901124510 50 133 0.0 0.0 0.00 0.00 0.00 82 1005.0
20260901123010 51 134 0.0 0.0 0.00 0.00 0.00 82 1005.2
20260901121506 51 134 0.0 0.0 0.00 0.00 0.00 81 1005.3
20260901120003 51 134 0.0 3.0 0.00 0.00 0.00 81 1005.0
20260901114502 51 120 0.0 3.0 0.00 0.00 0.00 81 1005.2
20260901113101 52 134 0.0 2.0 0.00 0.00 0.00 80 1005.4
20260901111608 52 133 0.0 1.0 0.00 0.00 0.00 80 1005.4
20260901110059 52 133 0.0 1.0 0.00 0.00 0.00 79 1005.5
20260901104556 53 141 0.0 3.0 0.00 0.00 0.00 79 1005.5
20260901103114 53 136 0.0 3.0 0.00 0.00 0.00 79 1005.4
20260901101556 53 148 0.0 2.0 0.00 0.00 0.00 79 1005.4
20260901100055 53 146 0.0 2.0 0.00 0.00 0.00 79 1005.5
20260901094552 53 134 0.0 3.0 0.00 0.00 0.00 79 1005.5
20260901093121 53 137 0.0 2.0 0.00 0.00 0.00 79 1005.6
20260901091601 53 124 0.0 2.0 0.00 0.00 0.00 79 1005.5
20260901090048 53 141 0.0 1.0 0.00 0.00 0.00 79 1005.9
20260901084547 53 146 0.0 2.0 0.00 0.00 0.00 79 1005.8